TIME,DELAY(SENSOR),PRES,OXYGEN,RAWTEMP,T(OPTODE),TCPHASE,FLUOR,BETA(BETA700),BETA(BETA412),BETA(BETA440),CDOM,C(CSC),ED(ED412.40),ED(ED444.00),ED(ED489.70),ED(ED554.30),LU(LU411.80),LU(LU443.40),LU(LU489.60),LU(LU554.10),COMP,TILTX,TILTY,CHECK
1372996868,5809,820.1099853515625000,44.2447013854980500,661.9094238281250000,4.5650920867919920,54.3882293701171900,53,99,85,80,80,15433,2147753920,2147423661,2148013101,2147875437,2147638957,2147056941,2148257572,2147198144,804,4,13,10070
1373000464,5810,897.1799926757812000,49.0053596496582000,668.0695190429688000,4.3619499206542970,53.7837600708007800,52,98,86,80,79,15431,2147750610,2147423945,2148009856,2147878646,2147640484,2147055058,2148261010,2147197604,2363,3,13,23040
1373004064,5807,898.7299804687500000,50.5155601501464840,672.7178955078125000,4.2083721160888670,53.6338691711425800,53,98,87,79,79,15431,2147756233,2147422025,2148013248,2147876416,2147641462,2147056502,2148259693,2147199131,350,4,13,33413
1373007664,5809,936.2899780273438000,51.9230384826660160,673.8010253906250000,4.1725559234619140,53.4546813964843750,52,100,87,78,79,15422,2147752512,2147423597,2148010294,2147877403,2147637979,2147052909,2148260434,2147194157,3493,4,13,57783
1373011264,5810,949.7199707031250000,51.8470611572265600,674.0944213867188000,4.1628479957580570,53.4685783386230500,52,99,84,78,80,15422,2147754934,2147423259,2148012452,2147876772,2147641892,2147054464,2148260681,2147198098,3398,4,13,22468
1373014864,5810,945.9699707031250000,51.3057708740234400,674.0065917968750000,4.1657538414001465,53.5424118041992200,51,100,86,79,79,15420,2147756818,2147422848,2148008832,2147879104,2147641389,2147055396,2148261842,2147200137,569,4,13,60297
1373018464,5808,976.2500000000000000,52.0783195495605500,676.6801147460938000,4.0772738456726070,53.4709510803222660,53,107,88,78,79,15421,2147756653,2147428096,2148012288,2147876781,2147642560,2147048987,2148261092,2147195885,343,4,13,30699
1373022064,5809,977.4600219726562000,51.7071113586425800,676.0629882812500000,4.0977058410644530,53.5167808532714840,52,98,88,79,80,15419,2147754066,2147423579,2148010331,2147875273,2147642048,2147052818,2148264164,2147194020,41,4,13,23688
1373025664,5810,986.3200073242188000,51.8627204895019500,675.7249755859375000,4.1088938713073730,53.4901199340820300,53,101,84,79,80,15422,2147755492,2147423442,2148009508,2147878180,2147642678,2147048521,2148261366,2147195629,3547,3,13,2357
1373029264,5811,995.0200195312500000,51.5475807189941400,675.1652832031250000,4.1274151802062990,53.5230293273925800,53,98,88,78,79,15421,2147753417,2147424813,2148010038,2147876004,2147642761,2147052160,2148260955,2147198061,3295,4,13,50587
1373032864,5809,993.2899780273438000,51.3501892089843750,675.1574096679688000,4.1276779174804690,53.5482597351074200,52,102,84,103,80,15420,2147756370,2147423195,2148012470,2147877741,2147641545,2147051245,2148262564,2147194688,390,4,13,5467
1373036464,5809,985.4400024414062000,51.3179588317871100,675.8767700195312000,4.1038680076599120,53.5621490478515600,51,96,84,79,80,15415,2147755584,2147424640,2148010477,2147876196,2147641801,2147054838,2148265572,2147195218,52,4,13,1415
1373040064,5808,981.0399780273438000,51.9218597412109400,677.1729125976562000,4.0609588623046875,53.5009803771972660,53,97,83,77,78,15420,2147755812,2147425901,2148012717,2147874724,2147641462,2147054217,2148258587,2147196937,3571,4,13,38210
1373043664,5808,977.7399902343750000,54.8765182495117200,676.9608764648438000,4.0679779052734375,53.1020507812500000,52,106,85,77,80,15405,2147755867,2147424566,2148009298,2147877531,2147642715,2147054756,2148260278,2147196260,3389,4,13,57792
1373047264,5810,973.1799926757812000,54.5975189208984400,677.5897216796875000,4.0471520423889160,53.1443710327148440,52,98,84,78,80,15380,2147757238,2147422701,2148011245,2147874806,2147640530,2147052461,2148260123,2147198656,364,4,13,13705
1373050864,5806,986.2700195312500000,56.1263084411621100,677.8784790039062000,4.0375862121582030,52.9479904174804700,52,97,87,79,81,15402,2147756150,2147424000,2148012132,2147875940,2147642413,2147054537,2148263149,2147200228,2691,3,14,57749
1373054464,5808,975.5700073242188000,55.6915283203125000,678.0612182617188000,4.0315341949462890,53.0103111267089840,52,99,88,78,79,15405,2147755675,2147424813,2148012169,2147877312,2147641792,2147052937,2148256795,2147197485,3314,4,13,29205
1373058064,5808,974.5999755859375000,55.6448707580566400,678.8148193359375000,4.0065708160400390,53.0257606506347660,52,97,88,78,80,15402,2147753590,2147427684,2148012461,2147876534,2147643657,2147052233,2148259181,2147196626,3344,4,13,55005
1373061664,5809,984.2100219726562000,55.9770507812500000,677.8889770507812000,4.0372409820556640,52.9655799865722660,52,97,85,81,79,15404,2147754523,2147428041,2148011401,2147874998,2147644022,2147052324,2148265069,2147197238,3047,3,13,52762
1373065264,5810,986.2100219726562000,55.0741691589355500,676.9622802734375000,4.0679302215576170,53.0783805847168000,52,95,84,79,79,15404,2147757522,2147427428,2148012077,2147875136,2147641874,2147049517,2148262464,2147196160,3435,4,13,38868
1373068864,5813,985.7800292968750000,53.7479209899902340,676.8726806640625000,4.0708961486816410,53.2476310729980500,52,96,85,79,79,15404,2147760649,2147426011,2148011849,2147873033,2147641408,2147052544,2148259510,2147193755,2801,4,13,53138
1373072464,5811,988.8499755859375000,53.7059211730957000,677.3779296875000000,4.0541691780090330,53.2646713256835940,52,97,90,78,79,15400,2147756324,2147424064,2148011629,2147876644,2147644178,2147055881,2148260132,2147197568,3513,3,13,10539
1373076064,5810,991.6799926757812000,52.1472702026367200,676.9152221679688000,4.0694899559021000,53.4650993347168000,52,99,82,78,79,15404,2147757668,2147425024,2148011995,2147876397,2147643931,2147058642,2148264685,2147198445,147,4,13,63014
1373079664,5806,993.3300170898438000,52.8114318847656250,676.0076293945312000,4.0995388031005860,53.3615684509277340,52,98,86,79,80,15400,2147754861,2147422235,2148010998,2147875282,2147645494,2147051172,2148263460,2147197074,644,4,13,47172
1373083264,5805,991.0499877929688000,52.7054710388183600,676.0125122070312000,4.0993771553039550,53.3785209655761700,53,100,82,78,80,15396,2147758601,2147425462,2148010203,2147874715,2147640822,2147054875,2148257170,2147201106,3264,4,13,57433
1373086864,5808,990.5499877929688000,51.6509819030761700,677.3486938476562000,4.0551362037658690,53.5366096496582000,52,99,91,78,80,15396,2147760018,2147427648,2148013248,2147874569,2147644105,2147054674,2148256850,2147198893,127,4,13,33758
1373090464,5810,981.5599975585938000,52.1198196411132800,677.2470703125000000,4.0584998130798340,53.4725799560546900,52,97,83,80,79,15397,2147756736,2147423341,2148009344,2147873920,2147641581,2147051675,2148257874,2147194770,645,4,13,31523
1373094064,5809,979.8200073242188000,54.9110412597656250,678.2056884765625000,4.0267491340637210,53.1112594604492200,52,98,86,78,81,15402,2147755593,2147425746,2148012105,2147874093,2147641289,2147048768,2148262656,2147196736,3589,4,13,38516
1373097664,5810,985.2299804687500000,55.2263488769531250,678.4119873046875000,4.0199151039123535,53.0764198303222660,52,98,85,78,79,15398,2147753572,2147424704,2148013440,2147878619,2147640777,2147049408,2148260480,2147197668,1349,4,13,35258
1373101264,5811,988.6199951171875000,55.3574905395507800,676.5501098632812000,4.0815768241882320,53.0331306457519500,53,96,85,78,78,15400,2147753133,2147424886,2148015076,2147875209,2147643200,2147053312,2148264338,2147196772,562,4,13,25682
1373104864,5809,985.9199829101562000,54.9744300842285160,677.6486206054688000,4.0452017784118650,53.0977287292480500,53,102,86,78,80,15397,2147754889,2147423844,2148010395,2147875273,2147643428,2147055515,2148261174,2147200685,3364,4,13,52344
1373108464,5807,987.5900268554688000,55.2969589233398440,677.1232299804688000,4.0626010894775390,53.0452003479003900,52,97,87,77,80,15398,2147755163,2147426678,2148010002,2147877741,2147644662,2147050486,2148261787,2147196123,3587,4,13,51255
1373112064,5810,992.2600097656250000,55.0997200012207000,677.5916137695312000,4.0470890998840330,53.0787582397460940,51,98,86,78,80,15398,2147757403,2147424813,2148014262,2147875163,2147644205,2147056356,2148259446,2147195017,2995,4,13,17603
1373115664,5806,986.5800170898438000,54.7723007202148440,676.9213256835938000,4.0692877769470215,53.1121711730957000,52,97,86,78,79,15399,2147756516,2147428032,2148012434,2147873746,2147646546,2147052489,2148266486,2147195190,903,4,13,20171
1373119264,5810,991.1400146484375000,54.2909202575683600,676.9304199218750000,4.0689868927001950,53.1800613403320300,52,96,85,78,79,15398,2147753792,2147425993,2148014217,2147873673,2147644708,2147048027,2148262491,2147199506,58,4,13,49583
1373122864,5808,994.3300170898438000,52.7515411376953100,676.3380737304688000,4.0885977745056150,53.3758506774902340,52,97,87,79,78,15395,2147753545,2147426395,2148010486,2147876571,2147641334,2147049920,2148260379,2147197184,295,4,13,3554
1373126464,5812,999.2199707031250000,52.7845916748046900,675.9340209960938000,4.1019759178161620,53.3689689636230500,52,96,84,78,79,15397,2147754212,2147421632,2148009609,2147875702,2147640704,2147050294,2148255186,2147197110,11,4,13,6765
1373130064,5805,991.7000122070312000,51.7224082946777340,677.2567749023438000,4.0581779479980470,53.5283393859863300,52,97,84,78,80,15392,2147754770,2147421065,2148012690,2147876854,2147644809,2147056832,2148260041,2147195684,3543,4,13,62620
1373133664,5808,991.3499755859375000,53.4386596679687500,676.8828735351562000,4.0705599784851070,53.2930488586425800,53,95,83,78,80,15395,2147752466,2147420480,2148014784,2147874907,2147642998,2147052608,2148266112,2147197723,310,3,13,14393
1373137264,5806,990.2199707031250000,54.6651496887207000,677.6594238281250000,4.0448441505432130,53.1385688781738300,53,97,86,78,79,15395,2147753298,2147423698,2148010468,2147875337,2147644342,2147051172,2148257069,2147192795,331,4,13,28431
1373140864,5809,988.3699951171875000,54.4668807983398440,677.5687255859375000,4.0478501319885250,53.1640701293945300,52,99,87,77,79,15396,2147752685,2147423936,2148008978,2147876653,2147645696,2147048237,2148261833,2147197357,129,4,13,2319
1373141455,5810,987.7600097656250000,54.2602310180664060,677.5568847656250000,4.0482411384582520,53.1919784545898440,52,96,85,79,80,15423,2147751478,2147424402,2148014089,2147875245,2147643346,2147048429,2148259044,2147194724,10,4,13,28701
